• Em Portugal
  • Lista de países
  • Para 7 dias
  • Temperatura da água
  • Mapas de satélite
  • Mapa do tempo
  • Widgets de tempo
  • user-avatar
    Iniciar Sessão

    Previsão horária em Dipayal

    Hoje, 23 Outubro, Segunda-feira

    Tempo Temperatura Precipitação Vento Pressão Humidade
    00:00 +20°C° 0 mm 1 m/s 701 mmHg 76%
    01:00 +19°C° 0 mm 2 m/s 701 mmHg 74%
    02:00 +19°C° 0 mm 2 m/s 701 mmHg 73%
    03:00 +19°C° 0 mm 2 m/s 701 mmHg 70%
    04:00 +18°C° 0 mm 2 m/s 701 mmHg 67%
    05:00 +18°C° 0 mm 2 m/s 701 mmHg 66%
    06:00 +21°C° 0 mm 1 m/s 702 mmHg 59%
    07:00 +23°C° 0 mm 1 m/s 702 mmHg 52%
    08:00 +25°C° 0 mm 1 m/s 702 mmHg 44%
    09:00 +27°C° 0 mm 1 m/s 702 mmHg 38%
    10:00 +29°C° 0 mm 2 m/s 702 mmHg 31%
    11:00 +31°C° 0 mm 2 m/s 702 mmHg 25%
    12:00 +31°C° 0 mm 2 m/s 702 mmHg 25%
    13:00 +31°C° 0 mm 2 m/s 702 mmHg 25%
    14:00 +31°C° 0 mm 2 m/s 701 mmHg 25%
    15:00 +28°C° 0 mm 2 m/s 701 mmHg 33%
    16:00 +25°C° 0 mm 1 m/s 701 mmHg 41%
    17:00 +22°C° 0 mm 1 m/s 701 mmHg 48%
    18:00 +22°C° 0 mm 1 m/s 702 mmHg 47%
    19:00 +21°C° 0 mm 1 m/s 702 mmHg 46%
    20:00 +19°C° 0 mm 2 m/s 703 mmHg 45%
    21:00 +19°C° 0 mm 2 m/s 703 mmHg 44%
    22:00 +19°C° 0 mm 2 m/s 703 mmHg 43%
    23:00 +18°C° 0 mm 2 m/s 703 mmHg 42%

    Amanhã, 24 Outubro, Terça-feira

    Tempo Temperatura Precipitação Vento Pressão Humidade
    00:00 +18°C° 0 mm 2 m/s 703 mmHg 41%
    01:00 +18°C° 0 mm 2 m/s 702 mmHg 40%
    02:00 +18°C° 0 mm 2 m/s 702 mmHg 39%
    03:00 +18°C° 0 mm 2 m/s 702 mmHg 38%
    04:00 +17°C° 0 mm 2 m/s 702 mmHg 37%
    05:00 +17°C° 0 mm 2 m/s 702 mmHg 36%
    06:00 +19°C° 0 mm 2 m/s 703 mmHg 35%
    07:00 +23°C° 0 mm 1 m/s 704 mmHg 34%
    08:00 +25°C° 0 mm 1 m/s 704 mmHg 33%
    09:00 +27°C° 0 mm 1 m/s 704 mmHg 30%
    10:00 +28°C° 0 mm 2 m/s 704 mmHg 28%
    11:00 +30°C° 0 mm 2 m/s 704 mmHg 25%
    12:00 +30°C° 0 mm 2 m/s 704 mmHg 26%
    13:00 +29°C° 0 mm 2 m/s 703 mmHg 28%
    14:00 +29°C° 0 mm 2 m/s 703 mmHg 29%
    15:00 +27°C° 0 mm 2 m/s 703 mmHg 38%
    16:00 +24°C° 0 mm 1 m/s 702 mmHg 47%
    17:00 +19°C° 0 mm 0 m/s 702 mmHg 56%
    18:00 +21°C° 0 mm 1 m/s 703 mmHg 56%
    19:00 +20°C° 0 mm 1 m/s 703 mmHg 56%
    20:00 +19°C° 0 mm 2 m/s 704 mmHg 57%
    21:00 +18°C° 0 mm 2 m/s 704 mmHg 56%
    22:00 +18°C° 0 mm 2 m/s 704 mmHg 55%
    23:00 +18°C° 0 mm 2 m/s 704 mmHg 55%

    Depois de amanhã, 25 Outubro, Quarta-feira

    Tempo Temperatura Precipitação Vento Pressão Humidade
    00:00 +18°C° 0 mm 2 m/s 704 mmHg 53%
    01:00 +17°C° 0 mm 2 m/s 703 mmHg 52%
    02:00 +17°C° 0 mm 2 m/s 703 mmHg 51%
    03:00 +17°C° 0 mm 2 m/s 703 mmHg 50%
    04:00 +17°C° 0 mm 2 m/s 704 mmHg 49%
    05:00 +17°C° 0 mm 2 m/s 704 mmHg 47%
    06:00 +19°C° 0 mm 2 m/s 705 mmHg 44%
    07:00 +22°C° 0 mm 1 m/s 705 mmHg 41%
    08:00 +24°C° 0 mm 1 m/s 706 mmHg 37%
    09:00 +26°C° 0 mm 1 m/s 706 mmHg 35%
    10:00 +28°C° 0 mm 2 m/s 706 mmHg 32%
    11:00 +29°C° 0 mm 2 m/s 706 mmHg 30%
    12:00 +29°C° 0 mm 2 m/s 705 mmHg 31%
    13:00 +29°C° 0 mm 2 m/s 705 mmHg 32%
    14:00 +29°C° 0 mm 2 m/s 704 mmHg 34%
    15:00 +26°C° 0 mm 1 m/s 704 mmHg 43%
    16:00 +23°C° 0 mm 1 m/s 704 mmHg 52%
    17:00 +19°C° 0 mm 0 m/s 703 mmHg 62%
    18:00 +20°C° 0 mm 1 m/s 704 mmHg 62%
    19:00 +20°C° 0 mm 1 m/s 704 mmHg 62%
    20:00 +19°C° 0 mm 1 m/s 705 mmHg 63%
    21:00 +19°C° 0 mm 1 m/s 705 mmHg 62%
    22:00 +19°C° 0 mm 1 m/s 705 mmHg 61%
    23:00 +18°C° 0 mm 2 m/s 704 mmHg 61%

    26 Outubro, Quinta-feira

    Tempo Temperatura Precipitação Vento Pressão Humidade
    00:00 +18°C° 0 mm 2 m/s 704 mmHg 60%
    01:00 +17°C° 0 mm 2 m/s 704 mmHg 58%
    02:00 +17°C° 0 mm 2 m/s 704 mmHg 57%
    03:00 +17°C° 0 mm 2 m/s 704 mmHg 56%
    04:00 +17°C° 0 mm 2 m/s 704 mmHg 55%
    05:00 +17°C° 0 mm 2 m/s 704 mmHg 54%
    06:00 +20°C° 0 mm 1 m/s 705 mmHg 51%
    07:00 +23°C° 0 mm 1 m/s 705 mmHg 47%
    08:00 +23°C° 0 mm 0 m/s 706 mmHg 43%
    09:00 +26°C° 0 mm 1 m/s 706 mmHg 40%
    10:00 +28°C° 0 mm 1 m/s 706 mmHg 37%
    11:00 +29°C° 0 mm 2 m/s 706 mmHg 34%
    12:00 +29°C° 0 mm 2 m/s 705 mmHg 35%
    13:00 +29°C° 0 mm 2 m/s 705 mmHg 36%
    14:00 +29°C° 0 mm 2 m/s 704 mmHg 37%
    15:00 +26°C° 0 mm 2 m/s 704 mmHg 47%
    16:00 +23°C° 0 mm 1 m/s 704 mmHg 57%
    17:00 +19°C° 0 mm 0 m/s 704 mmHg 67%
    18:00 +20°C° 0 mm 1 m/s 704 mmHg 67%
    19:00 +20°C° 0 mm 1 m/s 705 mmHg 68%
    20:00 +19°C° 0 mm 1 m/s 705 mmHg 69%
    21:00 +18°C° 0 mm 2 m/s 705 mmHg 68%
    22:00 +18°C° 0 mm 2 m/s 705 mmHg 67%
    23:00 +18°C° 0 mm 2 m/s 705 mmHg 67%

    27 Outubro, Sexta-feira

    Tempo Temperatura Precipitação Vento Pressão Humidade
    00:00 +18°C° 0 mm 2 m/s 704 mmHg 65%
    01:00 +17°C° 0 mm 2 m/s 704 mmHg 63%
    02:00 +17°C° 0 mm 2 m/s 703 mmHg 61%
    03:00 +17°C° 0 mm 2 m/s 704 mmHg 58%
    04:00 +17°C° 0 mm 2 m/s 704 mmHg 55%
    05:00 +17°C° 0 mm 2 m/s 704 mmHg 52%
    06:00 +20°C° 0 mm 1 m/s 704 mmHg 47%
    07:00 +23°C° 0 mm 1 m/s 705 mmHg 42%
    08:00 +23°C° 0 mm 0 m/s 706 mmHg 37%
    09:00 +26°C° 0 mm 1 m/s 705 mmHg 35%
    10:00 +28°C° 0 mm 1 m/s 705 mmHg 33%
    11:00 +29°C° 0 mm 2 m/s 705 mmHg 31%
    12:00 +29°C° 0 mm 2 m/s 704 mmHg 32%
    13:00 +29°C° 0 mm 2 m/s 704 mmHg 34%
    14:00 +29°C° 0 mm 2 m/s 703 mmHg 35%
    15:00 +26°C° 0 mm 2 m/s 703 mmHg 45%
    16:00 +23°C° 0 mm 1 m/s 703 mmHg 56%
    17:00 +19°C° 0 mm 0 m/s 703 mmHg 66%
    18:00 +20°C° 0 mm 1 m/s 703 mmHg 66%
    19:00 +20°C° 0 mm 1 m/s 704 mmHg 66%
    20:00 +18°C° 0 mm 2 m/s 704 mmHg 66%
    21:00 +18°C° 0 mm 2 m/s 704 mmHg 63%
    22:00 +18°C° 0 mm 2 m/s 704 mmHg 61%
    23:00 +18°C° 0 mm 2 m/s 704 mmHg 58%

    28 Outubro, Sábado

    Tempo Temperatura Precipitação Vento Pressão Humidade
    00:00 +17°C° 0 mm 2 m/s 704 mmHg 55%
    01:00 +17°C° 0 mm 2 m/s 703 mmHg 51%
    02:00 +17°C° 0 mm 2 m/s 703 mmHg 48%
    03:00 +17°C° 0 mm 2 m/s 703 mmHg 44%
    04:00 +17°C° 0 mm 2 m/s 703 mmHg 41%
    05:00 +16°C° 0 mm 2 m/s 703 mmHg 38%
    06:00 +19°C° 0 mm 2 m/s 704 mmHg 35%
    07:00 +22°C° 0 mm 1 m/s 705 mmHg 32%
    08:00 +24°C° 0 mm 1 m/s 705 mmHg 30%
    09:00 +26°C° 0 mm 1 m/s 705 mmHg 29%
    10:00 +27°C° 0 mm 1 m/s 705 mmHg 27%
    11:00 +29°C° 0 mm 2 m/s 705 mmHg 26%
    12:00 +29°C° 0 mm 2 m/s 704 mmHg 28%
    13:00 +29°C° 0 mm 2 m/s 704 mmHg 30%
    14:00 +29°C° 0 mm 2 m/s 703 mmHg 32%
    15:00 +26°C° 0 mm 1 m/s 703 mmHg 42%
    16:00 +23°C° 0 mm 1 m/s 703 mmHg 52%
    17:00 +18°C° 0 mm 0 m/s 703 mmHg 62%
    18:00 +20°C° 0 mm 1 m/s 704 mmHg 63%
    19:00 +19°C° 0 mm 1 m/s 704 mmHg 63%
    20:00 +18°C° 0 mm 2 m/s 705 mmHg 64%
    21:00 +18°C° 0 mm 2 m/s 705 mmHg 63%
    22:00 +17°C° 0 mm 2 m/s 704 mmHg 62%
    23:00 +17°C° 0 mm 2 m/s 704 mmHg 61%

    29 Outubro, Domingo

    Tempo Temperatura Precipitação Vento Pressão Humidade
    00:00 +17°C° 0 mm 2 m/s 704 mmHg 59%
    01:00 +17°C° 0 mm 2 m/s 704 mmHg 57%
    02:00 +17°C° 0 mm 2 m/s 703 mmHg 56%
    03:00 +16°C° 0 mm 2 m/s 704 mmHg 54%
    04:00 +16°C° 0 mm 2 m/s 704 mmHg 52%
    05:00 +16°C° 0 mm 2 m/s 704 mmHg 51%
    06:00 +18°C° 0 mm 2 m/s 705 mmHg 47%
    07:00 +21°C° 0 mm 1 m/s 705 mmHg 43%
    08:00 +24°C° 0 mm 1 m/s 706 mmHg 39%
    09:00 +25°C° 0 mm 1 m/s 706 mmHg 37%
    10:00 +27°C° 0 mm 1 m/s 706 mmHg 35%
    11:00 +28°C° 0 mm 2 m/s 706 mmHg 33%
    12:00 +28°C° 0 mm 2 m/s 705 mmHg 34%
    13:00 +28°C° 0 mm 2 m/s 705 mmHg 36%
    14:00 +27°C° 0 mm 2 m/s 705 mmHg 37%
    15:00 +25°C° 0 mm 1 m/s 705 mmHg 46%
    16:00 +23°C° 0 mm 1 m/s 705 mmHg 55%
    17:00 +18°C° 0 mm 0 m/s 705 mmHg 64%
    18:00 +20°C° 0 mm 1 m/s 705 mmHg 65%
    19:00 +19°C° 0 mm 1 m/s 706 mmHg 65%
    20:00 +18°C° 0 mm 2 m/s 706 mmHg 65%
    21:00 +17°C° 0 mm 2 m/s 706 mmHg 64%
    22:00 +17°C° 0 mm 2 m/s 706 mmHg 62%
    23:00 +17°C° 0 mm 2 m/s 706 mmHg 61%
    Mostrar mais